View from above orbital plane
|
View from above satellite
|
Ground track
|
The orbit data is extracted from the following two-line orbital elements,
1 22U 59009A 21109.51107805 .00000931 00000-0 91454-4 0 9997
2 22 50.2832 105.6860 0138780 348.2780 11.4947 14.95494395271123
Epoch (UTC): | 19 April 2021 12:15:57 |
Eccentricity: | 0.0138780 |
inclination: | 50.2832° |
perigee height: | 484 km |
apogee height: | 677 km |
right ascension of ascending node: | 105.6860° |
argument of perigee: | 348.2780° |
revolutions per day: | 14.95494395 |
mean anomaly at epoch: | 11.4947° |
orbit number at epoch: | 27112 |
The dashed part of the orbit path shows where the satellite is in the earth's shadow,
|
|